Miscellaneous Local Product
Issued by NWS North Platte, NE

Home | Current Version | Previous Version | Text Only | Print | Product List | Glossary On
Versions: 1 2 3 4 5 6 7 8 9 10 11 12 13 14 15 16 17 18 19 20 21 22 23 24 25 26 27 28 29 30 31 32 33 34 35 36 37 38 39 40 41 42 43 44 45 46 47 48 49 50
000
AXUS43 KLBF 042210
MISLBF


WESTERN AND NORTH CENTRAL NEBRASKA HOURLY WEATHER ROUNDUP
NATIONAL WEATHER SERVICE NORTH PLATTE NE
400 PM CST WED MAR 04 2015

***STATIONS NOT REPORTING VARIABLES SUCH AS SKY/WEATHER OR
PRESSURE ARE PROVIDED BY THE NEBRASKA DEPARTMENT OF
ROADS...RAWS...AND APRS NETWORKS...AND ARE NOT UNDER
NATIONAL WEATHER SERVICE QUALITY CONTROL***

...OBSERVATIONS IN AND NEAR THE EASTERN PANHANDLE OF NEBRASKA...

CITY           SKY/WX    TMP DP  RH WIND       PRES   REMARKS
WHITECLAY        N/A     19   3  49 W14         N/A  WCI   6
CRESCENT LAKE    N/A     25  -5  26 NW16G23     N/A  WCI  12
LISCO            N/A     29 -11  16 W17         N/A  WCI  17
BIG SPRINGS      N/A     28  11  50 NW8         N/A  WCI  20
LEWELLEN         N/A     26  -7  23 NW14        N/A  WCI  15
$$

...OBSERVATIONS IN NORTH CENTRAL NEBRASKA...

CITY           SKY/WX    TMP DP  RH WIND       PRES   REMARKS
THEDFORD       SUNNY     26   0  32 N16G22    30.20S WCI  13
AINSWORTH      MOSUNNY   20  -2  39 NW20G31   30.23S WCI   4
O`NEILL        SUNNY     21  -2  36 NW25G31   30.28R WCI   4
BROWNLEE         N/A     19  -5  34 NW15        N/A  WCI   5
SPRINGVIEW       N/A     19   2  47 N10G20      N/A  WCI   7
BREWSTER         N/A     27  -1  30 W15         N/A  WCI  15
ROSE             N/A     27   8  44 SW13        N/A  WCI  16
NEWPORT          N/A     26   8  45 NW17        N/A  WCI  13
SARGENT          N/A     27   0  30 NW5G12      N/A  WCI  22
COMSTOCK         N/A     33  -4  20 NW13        N/A  WCI  23
CHAMBERS         N/A     22  -8  26 N16         N/A  WCI   8
EWING            N/A     21   0  39 NW13G21     N/A  WCI   9
$$

...OBSERVATIONS IN SOUTHWEST NEBRASKA AND FAR NORTHEAST COLORADO...

CITY           SKY/WX    TMP DP  RH WIND       PRES   REMARKS
WRAY           FAIR      30   5  33 NW9       30.18F WCI  22
OGALLALA       SUNNY     29   4  34 NW20G25   30.18F WCI  16
LEXINGTON      MOSUNNY   30   7  38 NW17G23   30.22F WCI  18
PAXTON           N/A     29   7  38 NW9         N/A  WCI  21
BRADY            N/A     31   2  28 MISG        N/A
GOTHENBURG       N/A     27   2  34 NW12        N/A  WCI  17
CALLAWAY         N/A     27   3  35 NW15        N/A  WCI  15
$$

...NORTH PLATTE AREA...

CITY           SKY/WX    TMP DP  RH WIND       PRES   REMARKS
DOWNTOWN         N/A     28  -1  28 NW12G22     N/A  WCI  18
$$

...SOME WEATHER OBSERVATIONS FROM AROUND THE REGION...

CITY           SKY/WX    TMP DP  RH WIND       PRES   REMARKS
HAYS           SUNNY     32   0  25 N15G24    30.25F WCI  22
LIBERAL        CLOUDY    25  14  63 NE12      30.24R WCI  14
$$



USA.gov is the U.S. government's official web portal to all federal, state and local government web resources and services.